Flag for Germany Weather past 2 weeks in Aalen, Baden-Württemberg, Germany

Now
67 °F

Passing clouds.


Feels Like: 67 °F
Forecast: 55 / 77 °F
Wind: 3 mph from Southeast

Location: Stoetten

Current Time: Jul 31, 2015 at 8:03:42 PM

Latest Report: Jul 31, 2015 at 7:00 PM


Visibility: 34 mi

Pressure: 29.93 "Hg

Humidity: 32%

Dew point: 36 °F

Location of AalenLocation

Historic Weather in Aalen — Graph

°F

Aalen temperature yesterday

Maximum temperature yesterday: 62 °F (at 3:00 PM)
Minimum temperature yesterday: 47 °F (at 5:00 AM)
Average temperature yesterday: 55 °F

Past Weeks' High & Low Weather Summary

 TemperatureHumidityPressure
High89 °F (Jul 22, 2:00 PM)100% (Jul 23, 4:00 AM)30.12 "Hg (Jul 23, 4:00 AM)
Low46 °F (Jul 26, 5:00 AM)28% (Jul 17, 12:00 PM)29.67 "Hg (Jul 24, 7:00 PM)
Average66 °F66%29.92 "Hg
* Reported Jul 16 7:00 PM — Jul 31 7:00 PM, Aalen, Weather by CustomWeather, © 2015

Note: Actual official high and low records may vary slightly from our data, if they occured in-between our weather recording intervals... More about our weather records

Advertising

Aalen weather history for previous 24 hours

 ConditionsComfort  
Time TempWeatherWind HumidityBarometerVisibility
7:00 PM
Fri, Jul 31
67 °FPassing clouds.3 mph32%29.93 "Hg34 mi
6:00 PM69 °FSunny.3 mph33%29.93 "Hg31 mi
5:00 PM68 °FScattered clouds.N/A35%29.93 "Hg47 mi
4:00 PM67 °FScattered clouds.5 mph36%29.95 "Hg47 mi
3:00 PM67 °FPartly sunny.3 mph42%29.97 "Hg47 mi
2:00 PM66 °FScattered clouds.3 mph41%29.98 "Hg47 mi
1:00 PM62 °FScattered clouds.3 mph44%30.03 "Hg47 mi
12:00 PM62 °FPassing clouds.2 mph49%30.04 "Hg47 mi
11:00 AM60 °FPassing clouds.3 mph55%30.06 "Hg47 mi
10:00 AM57 °FPassing clouds.2 mph60%30.07 "Hg47 mi
9:00 AM54 °FPassing clouds.3 mph70%30.09 "Hg43 mi
8:00 AM48 °FPassing clouds.2 mph87%30.11 "Hg43 mi
7:00 AM47 °FPassing clouds.3 mph88%30.11 "Hg37 mi
5:00 AM47 °FClear.2 mph85%30.11 "Hg19 mi
4:00 AM48 °FPassing clouds.3 mph83%30.11 "Hg25 mi
3:00 AM49 °FPassing clouds.2 mph80%30.11 "Hg25 mi
2:00 AM50 °FOvercast.2 mph77%30.10 "Hg28 mi
1:00 AM51 °FPassing clouds.2 mph74%30.09 "Hg28 mi
11:00 PM
Thu, Jul 30
54 °FOvercast.2 mph68%30.05 "Hg28 mi
10:00 PM56 °FOvercast.3 mph62%30.04 "Hg31 mi
9:00 PM56 °FOvercast.2 mph62%30.02 "Hg31 mi
8:00 PM58 °FOvercast.N/A56%30.00 "Hg31 mi
Weather by CustomWeather, © 2015

See weather overviewHow to use our weather pages